This is the latest recevied weather packets stored in our database for station/object KC5EZZ. If no packets are shown the sender has not sent any weather packets the latest 10 day(s).
| Time | Temp. | Humidity | Pressure | Rain* | Wind** | Luminosity | Snow |
|---|---|---|---|---|---|---|---|
| 1777927669 | 30° C | 38% | 0 hPa | 0 mm | - | - | - |
| 1777927369 | 30.56° C | 38% | 0 hPa | 0 mm | - | - | - |
| 1777927069 | 30.56° C | 39% | 0 hPa | 0 mm | - | - | - |
| 1777926769 | 30.56° C | 39% | 0 hPa | 0 mm | - | - | - |
| 1777926469 | 30.56° C | 39% | 0 hPa | 0 mm | - | - | - |
| 1777926169 | 29.44° C | 40% | 0 hPa | 0 mm | - | - | - |
| 1777925869 | 29.44° C | 39% | 0 hPa | 0 mm | - | - | - |
| 1777925658 | 23.33° C | 61% | 0 hPa | 0 mm | - | - | - |
| 1777925658 | 25.56° C | 56% | 0 hPa | 0 mm | - | - | - |
| 1777925569 | 30° C | 40% | 0 hPa | 0 mm | - | - | - |
| 1777925269 | 30° C | 41% | 0 hPa | 0 mm | - | - | - |
| 1777924969 | 29.44° C | 41% | 0 hPa | 0 mm | - | - | - |
| 1777924669 | 29.44° C | 41% | 0 hPa | 0 mm | - | - | - |
| 1777924369 | 28.33° C | 42% | 0 hPa | 0 mm | - | - | - |
| 1777924069 | 28.33° C | 42% | 0 hPa | 0 mm | - | - | - |
| 1777923769 | 28.33° C | 42% | 0 hPa | 0 mm | - | - | - |
| 1777923469 | -2.78° C | 43% | 0 hPa | 0 mm | - | - | - |
| 1777923169 | -2.78° C | 45% | 0 hPa | 0 mm | - | - | - |
| 1777922869 | -3.89° C | 45% | 0 hPa | 0 mm | - | - | - |
| 1777922820 | -3.33° C | 45% | 0 hPa | 0 mm | - | - | - |
| 1777922569 | -3.33° C | 45% | 0 hPa | 0 mm | - | - | - |
| 1777922269 | -3.89° C | 45% | 0 hPa | 0 mm | - | - | - |
| 1777921969 | -3.33° C | 45% | 0 hPa | 0 mm | - | - | - |
| 1777921669 | -3.89° C | 45% | 0 hPa | 0 mm | - | - | - |
| 1777921369 | -3.33° C | 46% | 0 hPa | 0 mm | - | - | - |
* Rain latest hour (hover to see other rain measurements)
** Current wind speed in m/s (hover to see current wind gust speed)